EW6047 Weather Reports


Display with metric or nautical units.
time (UTC)temp
F
wind
direction
speed
MPH
gust
MPH
rain 1hr
in
rain 24hr
in
rain mn
in
humidity
%
barometer
mb
20180919015633 70 119 2.0 8.0 0.00 0.04 0.04 89 1011.8
20180919014733 70 93 2.0 8.0 0.00 0.04 0.04 89 1011.6
20180919013833 70 157 1.0 7.0 0.00 0.04 0.04 89 1011.8
20180919012933 71 148 2.0 5.0 0.00 0.04 0.04 88 1011.9
20180919012034 71 163 2.0 9.0 0.00 0.04 0.04 88 1011.8
20180919011133 71 85 2.0 6.0 0.00 0.04 0.04 88 1011.8
20180919010233 71 125 2.0 6.0 0.00 0.04 0.04 87 1011.7
20180919005333 71 125 2.0 9.0 0.00 0.04 0.04 87 1011.7
20180919004433 71 124 2.0 6.0 0.00 0.04 0.04 87 1011.9
20180919003533 71 99 2.0 7.0 0.00 0.04 0.04 88 1011.9
20180919002633 71 119 1.0 6.0 0.00 0.04 0.04 88 1011.8
20180919001733 71 158 1.0 7.0 0.00 0.04 0.04 87 1011.9
20180919000833 72 126 1.0 3.0 0.00 0.04 0.04 86 1011.7
20180918235933 72 107 2.0 6.0 0.00 0.04 0.04 84 1011.6
20180918235033 73 142 1.0 4.0 0.00 0.04 0.04 83 1011.3
20180918234133 73 133 2.0 5.0 0.00 0.04 0.04 83 1011.6
20180918233233 73 84 1.0 5.0 0.00 0.04 0.04 83 1011.6
20180918232333 73 218 2.0 9.0 0.00 0.04 0.04 83 1011.7
20180918231433 73 92 1.0 5.0 0.00 0.04 0.04 83 1011.7
20180918230533 74 43 1.0 4.0 0.00 0.04 0.04 85 1011.9
20180918225633 74 235 1.0 7.0 0.00 0.04 0.04 86 1011.8
20180918224733 72 135 2.0 7.0 0.00 0.04 0.04 85 1011.9
20180918223833 73 156 1.0 8.0 0.00 0.04 0.04 84 1011.9
20180918222933 74 131 1.0 8.0 0.00 0.04 0.04 84 1012.1
20180918222033 74 150 2.0 12.0 0.00 0.04 0.04 82 1012.0
20180918221133 75 202 1.0 5.0 0.00 0.04 0.04 82 1012.2
20180918220233 74 346 1.0 8.0 0.00 0.04 0.04 83 1012.1
20180918215333 74 345 4.0 13.0 0.00 0.04 0.04 83 1012.1
20180918214433 73 353 4.0 17.0 0.00 0.04 0.04 82 1012.7
20180918213533 76 63 2.0 13.0 0.00 0.04 0.04 84 1012.8
20180918212633 78 350 2.0 7.0 0.00 0.04 0.04 83 1012.7
20180918211733 82 220 1.0 5.0 0.02 0.04 0.04 81 1012.0
20180918210833 80 292 1.0 5.0 0.04 0.04 0.04 84 1011.5
20180918205933 80 80 1.0 3.0 0.04 0.04 0.04 89 1011.9
20180918205033 76 220 1.0 6.0 0.04 0.04 0.04 95 1011.8
20180918204133 75 316 2.0 10.0 0.04 0.04 0.04 95 1011.5
20180918203233 75 349 4.0 14.0 0.04 0.04 0.04 93 1010.9
20180918202333 77 7 4.0 14.0 0.04 0.04 0.04 89 1010.2
20180918201433 80 18 3.0 9.0 0.00 0.00 0.00 81 1010.6
20180918200533 87 16 2.0 4.0 0.00 0.00 0.00 64 1010.5
20180918195633 87 8 2.0 9.0 0.00 0.00 0.00 63 1010.5
20180918194733 89 50 1.0 5.0 0.00 0.00 0.00 59 1010.3
20180918193833 93 53 1.0 9.0 0.00 0.00 0.00 51 1010.7
20180918192933 96 352 1.0 7.0 0.00 0.00 0.00 49 1010.7
20180918192033 95 23 1.0 4.0 0.00 0.00 0.00 44 1010.9
20180918191133 93 357 1.0 5.0 0.00 0.00 0.00 50 1011.2
20180918190233 92 326 2.0 5.0 0.00 0.00 0.00 52 1011.2
20180918185333 93 344 2.0 8.0 0.00 0.00 0.00 53 1011.3
20180918184433 95 355 1.0 5.0 0.00 0.00 0.00 49 1011.5
20180918183533 94 290 1.0 5.0 0.00 0.00 0.00 50 1011.6
20180918182633 94 8 1.0 5.0 0.00 0.00 0.00 52 1011.7
20180918181733 94 340 1.0 5.0 0.00 0.00 0.00 52 1012.0
20180918180833 91 273 3.0 5.0 0.00 0.00 0.00 54 1012.2
20180918175933 91 359 1.0 7.0 0.00 0.00 0.00 53 1012.2
20180918175033 94 353 1.0 5.0 0.00 0.00 0.00 52 1012.4
20180918174133 90 357 2.0 5.0 0.00 0.00 0.00 53 1012.4
20180918173512 94 319 1.0 5.0 0.00 0.00 0.00 50 1012.4
20180918171433 95 309 0.0 3.0 0.00 0.00 0.00 48 1012.7
20180918170533 93 51 1.0 5.0 0.00 0.00 0.00 51 1012.8
20180918165633 92 20 1.0 3.0 0.00 0.00 0.00 52 1012.7
20180918164733 95 230 0.0 4.0 0.00 0.00 0.00 50 1012.7
20180918163833 91 143 1.0 4.0 0.00 0.00 0.00 51 1012.6
20180918162933 90 174 1.0 4.0 0.00 0.00 0.00 52 1012.5
20180918162033 90 166 1.0 4.0 0.00 0.00 0.00 50 1012.7
20180918161133 90 233 1.0 4.0 0.00 0.00 0.00 56 1012.6
20180918160233 91 265 1.0 3.0 0.00 0.00 0.00 55 1012.8
20180918155333 90 129 0.0 5.0 0.00 0.00 0.00 58 1012.9
20180918154433 96 169 0.0 5.0 0.00 0.00 0.00 51 1013.0
20180918153533 93 162 0.0 3.0 0.00 0.00 0.00 54 1012.9
20180918152633 92 0 0.0 1.0 0.00 0.00 0.00 56 1013.0
20180918151733 90 171 1.0 5.0 0.00 0.00 0.00 62 1012.6
20180918150833 87 140 1.0 9.0 0.00 0.00 0.00 67 1012.5
20180918145932 83 133 3.0 9.0 0.00 0.00 0.00 72 1012.6
20180918145033 83 141 1.0 7.0 0.00 0.00 0.00 70 1012.6
20180918144133 82 167 2.0 8.0 0.00 0.00 0.00 74 1012.6
20180918143233 83 154 2.0 9.0 0.00 0.00 0.00 75 1012.6
20180918142333 81 169 1.0 9.0 0.00 0.00 0.00 77 1012.6
20180918141433 80 234 2.0 7.0 0.00 0.00 0.00 83 1012.7
20180918140533 77 259 3.0 7.0 0.00 0.00 0.00 88 1012.7
20180918135633 77 133 1.0 7.0 0.00 0.00 0.00 89 1012.8
20180918134733 76 146 1.0 7.0 0.00 0.00 0.00 91 1012.9
20180918133833 76 184 1.0 4.0 0.00 0.00 0.00 92 1012.9
20180918132933 75 120 1.0 5.0 0.00 0.00 0.00 94 1013.1
20180918132033 74 121 1.0 5.0 0.00 0.00 0.00 94 1012.9
20180918131133 74 109 1.0 5.0 0.00 0.00 0.00 95 1013.0
20180918130233 74 113 2.0 5.0 0.00 0.00 0.00 96 1012.7
20180918125333 73 122 1.0 3.0 0.00 0.00 0.00 96 1012.8
20180918124433 73 140 0.0 4.0 0.00 0.00 0.00 96 1012.8
20180918123533 73 138 1.0 3.0 0.00 0.00 0.00 96 1012.7
20180918122634 73 129 1.0 5.0 0.00 0.00 0.00 96 1012.7
20180918121733 73 145 1.0 3.0 0.00 0.00 0.00 97 1012.7
20180918120832 73 176 1.0 3.0 0.00 0.00 0.00 97 1012.5
20180918115933 73 137 1.0 5.0 0.00 0.00 0.00 96 1012.3
20180918115033 73 93 1.0 6.0 0.00 0.00 0.00 96 1012.1
20180918114132 73 126 1.0 5.0 0.00 0.00 0.00 96 1012.4
20180918113233 73 130 2.0 6.0 0.00 0.00 0.00 96 1012.5
20180918112333 73 117 1.0 5.0 0.00 0.00 0.00 95 1012.4
20180918111432 73 129 2.0 7.0 0.00 0.00 0.00 95 1012.3
20180918110533 73 110 2.0 7.0 0.00 0.00 0.00 95 1012.5
20180918105632 73 146 2.0 5.0 0.00 0.00 0.00 95 1012.4
20180918104733 73 125 2.0 5.0 0.00 0.00 0.00 95 1012.5
20180918103833 73 138 2.0 5.0 0.00 0.00 0.00 95 1012.2
20180918102933 73 165 1.0 4.0 0.00 0.00 0.00 95 1012.5
20180918102032 74 145 1.0 6.0 0.00 0.00 0.00 94 1012.5
20180918101133 74 113 1.0 3.0 0.00 0.00 0.00 94 1012.5
20180918100233 74 95 1.0 6.0 0.00 0.00 0.00 94 1012.2
20180918095332 74 123 2.0 6.0 0.00 0.00 0.00 94 1012.3
20180918094432 74 129 0.0 5.0 0.00 0.00 0.00 94 1012.2
20180918093533 74 135 1.0 4.0 0.00 0.00 0.00 94 1012.2
20180918092632 74 147 1.0 7.0 0.00 0.00 0.00 94 1012.3
20180918091732 74 106 1.0 6.0 0.00 0.00 0.00 94 1012.1
20180918090833 74 118 2.0 7.0 0.00 0.00 0.00 94 1012.3
20180918085933 74 142 1.0 3.0 0.00 0.00 0.00 94 1012.4
20180918085033 74 46 0.0 6.0 0.00 0.00 0.00 94 1012.3
20180918084133 74 59 1.0 6.0 0.00 0.00 0.00 94 1012.4
20180918083232 74 144 1.0 5.0 0.00 0.00 0.00 93 1012.5
20180918082333 75 131 1.0 5.0 0.00 0.00 0.00 93 1012.9
20180918081433 75 107 1.0 6.0 0.00 0.00 0.00 93 1012.8
20180918080532 75 96 2.0 6.0 0.00 0.00 0.00 92 1012.8
20180918075633 75 110 1.0 7.0 0.00 0.00 0.00 92 1012.9
20180918074733 75 137 1.0 6.0 0.00 0.00 0.00 91 1012.9
20180918073833 76 148 1.0 4.0 0.00 0.00 0.00 90 1012.9
20180918072933 76 116 1.0 5.0 0.00 0.00 0.00 89 1013.0
20180918072033 76 142 1.0 9.0 0.00 0.00 0.00 88 1013.0
20180918071133 76 146 1.0 9.0 0.00 0.00 0.00 87 1012.9
20180918070233 77 122 2.0 9.0 0.00 0.00 0.00 85 1012.9
20180918065333 77 140 2.0 7.0 0.00 0.00 0.00 85 1012.9
20180918064432 78 116 2.0 6.0 0.00 0.00 0.00 84 1012.9
20180918063533 77 129 1.0 6.0 0.00 0.00 0.00 84 1013.2
20180918062633 78 118 2.0 7.0 0.00 0.00 0.00 83 1012.9
20180918061732 78 124 2.0 6.0 0.00 0.00 0.00 83 1013.1
20180918060832 78 99 2.0 6.0 0.00 0.00 0.00 84 1013.1
20180918055933 78 135 2.0 8.0 0.00 0.00 0.00 83 1012.9
20180918055032 78 93 1.0 7.0 0.00 0.00 0.00 83 1013.0
20180918054133 78 132 1.0 6.0 0.00 0.00 0.00 83 1012.9
20180918053233 78 130 1.0 5.0 0.00 0.00 0.00 83 1012.8
20180918052333 78 148 2.0 9.0 0.00 0.00 0.00 83 1012.6
20180918051433 78 135 2.0 8.0 0.00 0.00 0.00 83 1012.9
20180918050532 78 89 3.0 9.0 0.00 0.00 0.00 84 1012.9
20180918045633 78 133 2.0 8.0 0.00 0.00 0.00 84 1012.6
20180918044733 78 117 2.0 7.0 0.00 0.00 0.00 83 1012.9
20180918043833 78 123 3.0 10.0 0.00 0.00 0.00 83 1012.8
20180918042932 78 170 1.0 7.0 0.00 0.00 0.00 83 1012.8
20180918042032 79 129 2.0 8.0 0.00 0.00 0.00 82 1012.8
20180918041132 79 178 4.0 8.0 0.00 0.00 0.00 81 1012.7
20180918040232 79 144 4.0 9.0 0.00 0.00 0.00 79 1012.7
20180918035333 79 115 3.0 8.0 0.00 0.00 0.00 79 1012.7
20180918034432 79 120 3.0 9.0 0.00 0.00 0.00 79 1012.6
20180918033533 80 109 3.0 9.0 0.00 0.00 0.00 78 1012.6
20180918032633 80 149 2.0 13.0 0.00 0.00 0.00 77 1012.6
20180918031733 80 142 3.0 9.0 0.00 0.00 0.00 76 1012.5
20180918030832 80 144 3.0 8.0 0.00 0.00 0.00 76 1012.7
20180918025932 81 119 2.0 7.0 0.00 0.00 0.00 74 1012.4
20180918025033 81 144 2.0 9.0 0.00 0.00 0.00 74 1012.5
20180918024132 81 135 3.0 9.0 0.00 0.00 0.00 74 1012.5
20180918023232 81 153 3.0 11.0 0.00 0.00 0.00 75 1012.3
20180918022333 82 114 3.0 9.0 0.00 0.00 0.00 74 1012.0
20180918020533 82 202 3.0 8.0 0.00 0.00 0.00 73 1012.0